CZ-6A DEB, 61486

Orbit data source: Space-Track

CZ-6A DEB, 61486 is space debris in LEO originally from a launch on Tue, 06 Aug 2024 UTC launched from the Taiyaun Space Center, China (TSC). Debris objects in space refer to the collection of defunct objects orbiting the Earth. Examples of debris include non-operational satellites, rocket bodies, and fragments generated from explosions, collisions, or faulty payload assembly.

Loading next visibility...
Identifier
61486, 2024-140AAU
Orbit
LEO
Country
Flag of CNCN / PRC
Related business
Manufacturer
SAST
Mission
Spacecraft
Bus & Motor
Unknown
Mass
Unknown
Launch date (UTC)
2024-08-06 (2 years ago)
Launch vehicle
Unknown
Launch site
Taiyaun Space Center, China (TSC)
Object type
Payload
Rocket body
Debris
Shape & HBR
Unknown shape, 0.1 m
Radar Cross Section
Medium (>0.1 m² and <1 m²)

Expand to show TLE details & history
Last TLE update: 14 hours ago

TLE from 14 hours ago
0 CZ-6A DEB
1 61486U 24140AAU 26171.28171495  .00128719  00000-0  61117-2 0  9996
2 61486  89.1830 285.1900 0034060  87.6648 272.8496 15.18179748 95602
Epoch: 2026-06-20T06:45Z
TLE epoch observation values (Epoch: 2026-06-20T06:45:40.171Z)
Latitude
0.00001°
Longitude
-84.72596°
Altitude
513.448 km
Speed
7.608 km/s
True Right ascension
19h 00m 45s
True Declination
0° 00' 00"
Sunlit
Object was in full shadow at epoch
Visualization orbit readout
Latitude
Unknown
Longitude
Unknown
Altitude
Unknown
Speed
Unknown
Apparent Right ascension
Unknown
Apparent Declination
Unknown
Sunlit
N/A
Visualization observer readout
Local Sidereal Time
07:20:12
Azimuth
Unknown
Elevation
Unknown
Doppler factor
Unknown
Orbital elements
Apogee altitude
531.608 km
Perigee altitude
484.698 km
Semi-major axis
6,886.29 km
Eccentricity
0.00341
Inclination
89.183°
RAAN
285.19°
Arg. of periapsis
87.6648°
True anomaly
272.4597°
Mean anomaly
272.8496°
Eccentric anomaly
272.65466°
Mean motion
3.79809 °/min
Orbital period
94.78 mins
BSTAR
0.0061117
Loading maneuver chart data...
Computing Atmospheric mass density...
Loading historical data...
Loading historical data...
Loading historical data...
Loading historical data...
Loading historical data...
Loading historical data...
Loading historical data...

Documentation

Showing up to 5 results
|